Content
SEND FEEDBACK

Daily
Averages
Monthly
Summary
United Kingdom

IPSWICH, ENGLAND


Home > Europe > United Kingdom > England
Elevation: 285 feet     Latitude: 52 07N     Longitude: 000 58E

WEATHER
 
SELECT A DAY
Number of Records: 64,693;   Date Range: 8/10/96 - 8/18/14
 
SHARE

PRINT THIS DATA

[ ← Previous Day ]
WEATHER ALMANAC - OCTOBER 25, 2013
[ Next Day → ]
[ °C ]   °F
Weather ElementAverageHighLow
Temperature58.6 °F64.4 °F (1:12 pm)55 °F (1:00 am)
Dewpoint55.3 °F59 °F (11:15 am)53 °F (4:00 am)
Humidity88.5 %100 % (7:50 am)69 % (4:00 pm)
Barometer29.68 in29.88 in (1:00 am)29.65 in (6:50 am)
Wind Speed13.2 mph17.3 mph (5:50 am)
Weather ElementAverage
Visibility7.2 mi
Wind DirectionS (177.4 °)

Weather ElementTotal
Precipitation---
Heating Degree Days5.3 (Base 65)
Growing Degree Days9.7 (Base 50)
Averaged from 38 records on October 25, 2013
WEATHER CONDITIONS BREAKOUT
WIND DIRECTION BREAKOUT
WEATHER BY HOUR - OCTOBER 25, 2013
[ °C ]   °F
Local TimeTemperatureDewpointHumidityBarometerVisibilityWind DirectionWind SpeedGust SpeedPrecipitationEventsConditions
1:00 AM55.0 °F54.0 °F93 %29.88 in4.0 miESE (120°)12.7 mphMist
1:50 AM55.4 °F53.6 °F94 %29.83 in6.2 miESE (120°)12.7 mphOvercast
2:50 AM55.4 °F53.6 °F94 %29.77 in6.2 miESE (120°)12.7 mphOvercast
3:50 AM55.4 °F53.6 °F94 %29.74 in6.2 miSE (130°)13.8 mphOvercast
4:00 AM56.0 °F53.0 °F88 %29.75 in12.0 miSE (130°)13.8 mphOvercast
4:50 AM57.2 °F53.6 °F88 %29.68 in6.2 miSE (130°)12.7 mphRainLight Rain
5:50 AM57.2 °F53.6 °F88 %29.68 in6.2 miSE (140°)17.3 mphRainLight Rain
6:50 AM55.4 °F53.6 °F94 %29.65 in5.0 miSE (130°)15.0 mphRainLight Rain
7:00 AM55.0 °F54.0 °F95 %29.66 in5.0 miSE (130°)15.0 mphRainLight Rain
7:50 AM55.4 °F55.4 °F100 %29.65 in2.8 miSSE (150°)13.8 mphLight Drizzle
8:03 AM55.4 °F55.4 °F100 %29.65 in2.2 miSSE (150°)13.8 mphLight Drizzle
8:20 AM55.4 °F55.4 °F100 %29.65 in5.0 miSSE (150°)12.7 mphLight Drizzle
8:50 AM57.2 °F55.4 °F94 %29.65 in3.1 miSouth (170°)12.7 mphLight Drizzle
9:50 AM57.2 °F57.2 °F100 %29.65 in3.1 miSouth (180°)12.7 mphLight Drizzle
10:00 AM57.0 °F56.0 °F97 %29.65 in3.0 miSouth (180°)12.7 mphRainLight Drizzle
10:00 AM57.2 °F57.2 °F100 %29.65 in6.2 miSouth (180°)13.8 mphLight Drizzle
10:29 AM59.0 °F57.2 °F94 %29.65 in6.2 miSouth (190°)12.7 mphMostly Cloudy
10:50 AM59.0 °F57.2 °F94 %29.65 in6.2 miSouth (190°)11.5 mphOvercast
11:15 AM60.8 °F59.0 °F94 %29.65 in6.2 miSouth (190°)11.5 mphMostly Cloudy
11:50 AM60.8 °F59.0 °F94 %29.65 in6.2 miSSW (210°)12.7 mphMostly Cloudy
12:23 PM62.6 °F59.0 °F88 %29.65 in6.2 miSSW (200°)11.5 mphMostly Cloudy
12:50 PM62.6 °F59.0 °F88 %29.65 in6.2 miSSW (210°)11.5 mphMostly Cloudy
1:00 PM62.0 °F58.0 °F84 %29.67 in19.0 miSSW (210°)11.5 mphPartly Cloudy
1:12 PM64.4 °F59.0 °F83 %29.65 in6.2 miSW (220°)13.8 mphScattered Clouds
1:50 PM64.4 °F57.2 °F77 %29.65 in6.2 miSW (220°)13.8 mphMostly Cloudy
2:50 PM62.6 °F53.6 °F72 %29.65 in6.2 miSSW (210°)15.0 mphMostly Cloudy
3:50 PM62.6 °F53.6 °F72 %29.65 in6.2 miSSW (200°)11.5 mphMostly Cloudy
4:00 PM62.0 °F54.0 °F69 %29.67 in22.0 miSSW (200°)11.5 mphScattered Clouds
4:50 PM62.6 °F53.6 °F72 %29.65 in6.2 miSSW (200°)16.1 mphMostly Cloudy
5:50 PM60.8 °F53.6 °F77 %29.68 in6.2 miSSW (200°)13.8 mphScattered Clouds
6:50 PM59.0 °F55.4 °F88 %29.68 in6.2 miSouth (190°)12.7 mphPartly Cloudy
7:00 PM59.0 °F55.0 °F81 %29.68 in19.0 miSouth (190°)12.7 mphScattered Clouds
7:50 PM59.0 °F55.4 °F88 %29.65 in6.2 miSSW (200°)13.8 mph
8:50 PM59.0 °F53.6 °F82 %29.68 in6.2 miSSW (200°)13.8 mph
9:50 PM57.2 °F53.6 °F88 %29.68 in6.2 miSSW (200°)12.7 mph
10:00 PM58.0 °F54.0 °F82 %29.69 in19.0 miSSW (200°)12.7 mph
10:50 PM57.2 °F53.6 °F88 %29.68 in6.2 miSSW (200°)12.7 mph
11:50 PM57.2 °F53.6 °F88 %29.68 in6.2 miSSW (200°)15.0 mph
Hourly data recorded from EGUW, located miles away from Ipswich, England







STORIES FROM OUR PARTNERS